Ann Arbor, MI

3:21 AM EST on December 16, 2017 (GMT -0500)
Ann Arbor Municipal

Weather History for KARB - September, 2013

Change the Weather History Date:

Sunday, September 22, 2013

  Actual Average Record
Temperature  
Mean Temperature 53 °F -  
Max Temperature 61 °F 68 °F 91 °F (2017)
Min Temperature 39 °F 42 °F 28 °F (1999)
Degree Days  
Heating Degree Days 12    
Growing Degree Days 3 (Base 50)    
Moisture  
Dew Point 40 °F    
Average Humidity 64    
Maximum Humidity 96    
Minimum Humidity 49    
Precipitation  
Precipitation 0.00 in - - ()
Sea Level Pressure  
Sea Level Pressure 30.00 in    
Wind  
Wind Speed 8 mph (North)    
Max Wind Speed 13 mph    
Max Gust Speed 16 mph    
Visibility 10 miles    
Events      
Averages and records for this station are not official NWS values.
T = Trace of Precipitation, MM = Missing Value Source: NWS Daily Summary

Daily Weather History Graph

Daily Weather History Graph

Search for Another Location

Airport or City:

Trip Planner

Search our weather history database for the weather conditions in past years. The results will help you decide how hot, cold, wet, or windy it might be!

Date:

Astronomy

Sep. 22, 2013 Rise Set
Actual Time 7:22 AM EDT 7:31 PM EDT
Civil Twilight 6:54 AM EDT 7:59 PM EDT
Nautical Twilight 6:21 AM EDT 8:32 PM EDT
Astronomical Twilight 5:48 AM EDT 9:05 PM EDT
Moon 9:16 PM EDT (9/22) 10:46 AM EDT (9/22)
Length of Visible Light 13h 05m
Length of Day
12h 09m
Waning Gibbous, 89% of the Moon is Illuminated
Sep 22
Waning Gibbous
Sep 26
Last Quarter
Oct 4
New
Oct 11
First Quarter
Oct 18
Full

Hourly Weather History & Observations

Time (EDT) Temp. Dew Point Humidity Pressure Visibility Wind Dir Wind Speed Gust Speed Precip Events Conditions
12:53 AM 55.0 °F 43.0 °F 64% 29.89 in 10.0 mi NNW 9.2 mph - N/A   Overcast
1:53 AM 54.0 °F 42.1 °F 64% 29.90 in 10.0 mi North 9.2 mph - N/A   Overcast
2:53 AM 54.0 °F 42.1 °F 64% 29.91 in 10.0 mi NNW 12.7 mph - N/A   Overcast
3:53 AM 53.1 °F 39.0 °F 59% 29.91 in 10.0 mi NNW 6.9 mph - N/A   Overcast
4:53 AM 52.0 °F 37.9 °F 59% 29.92 in 10.0 mi North 8.1 mph - N/A   Overcast
5:53 AM 52.0 °F 39.0 °F 61% 29.94 in 10.0 mi North 5.8 mph - N/A   Overcast
6:53 AM 51.1 °F 41.0 °F 68% 29.95 in 10.0 mi North 4.6 mph - N/A   Overcast
7:53 AM 50.0 °F 41.0 °F 71% 29.98 in 10.0 mi North 5.8 mph - N/A   Mostly Cloudy
8:53 AM 50.0 °F 42.1 °F 74% 29.99 in 10.0 mi NNW 9.2 mph - N/A   Clear
9:53 AM 51.1 °F 39.0 °F 63% 30.01 in 10.0 mi North 12.7 mph - N/A   Overcast
10:53 AM 53.1 °F 39.0 °F 59% 30.02 in 10.0 mi North 11.5 mph - N/A   Overcast
11:53 AM 53.1 °F 39.9 °F 61% 30.04 in 10.0 mi North 11.5 mph - N/A   Overcast
12:53 PM 55.9 °F 39.9 °F 55% 30.03 in 10.0 mi North 12.7 mph - N/A   Mostly Cloudy
1:53 PM 57.9 °F 39.9 °F 51% 30.03 in 10.0 mi NNW 9.2 mph - N/A   Scattered Clouds
2:53 PM 59.0 °F 41.0 °F 51% 30.01 in 10.0 mi Variable 6.9 mph 16.1 mph N/A   Partly Cloudy
3:53 PM 60.1 °F 41.0 °F 49% 30.01 in 10.0 mi NNW 8.1 mph - N/A   Scattered Clouds
4:53 PM 57.0 °F 39.9 °F 53% 30.01 in 10.0 mi NNE 10.4 mph - N/A   Partly Cloudy
5:53 PM 59.0 °F 41.0 °F 51% 30.02 in 10.0 mi North 6.9 mph - N/A   Mostly Cloudy
6:53 PM 53.1 °F 41.0 °F 64% 30.04 in 10.0 mi NE 4.6 mph - N/A   Clear
7:53 PM 51.1 °F 41.0 °F 68% 30.05 in 10.0 mi ENE 3.5 mph - N/A   Clear
8:53 PM 48.9 °F 39.9 °F 71% 30.06 in 10.0 mi NE 3.5 mph - N/A   Clear
9:53 PM 48.0 °F 39.9 °F 74% 30.08 in 10.0 mi Calm Calm - N/A   Mostly Cloudy
10:53 PM 46.0 °F 41.0 °F 83% 30.08 in 10.0 mi Calm Calm - N/A   Partly Cloudy
11:53 PM 39.0 °F 37.9 °F 96% 30.10 in 10.0 mi Calm Calm - N/A   Clear